Regional Weather Roundup
Issued by NWS

Home | Current Version | Previous Version | Graphics & Text | Print | Product List | Glossary On
Versions: 1 2 3 4 5 6 7 8 9 10 11 12 13 14 15 16 17 18 19 20 21 22 23 24 25 26 27 28 29 30 31 32 33 34 35 36 37 38 39 40 41 42 43 44 45 46 47 48 49 50
000
ASUS43 KFSD 010610
RWRSD

WEATHER ROUNDUP FOR SOUTH DAKOTA
NATIONAL WEATHER SERVICE SIOUX FALLS SD
100 AM CDT TUE SEP 01 2015

NOTE: "FAIR" INDICATES FEW OR NO CLOUDS BELOW 12,000 FEET WITH NO
SIGNIFICANT WEATHER AND/OR OBSTRUCTIONS TO VISIBILITY.


SDZ001>005-009-010-012>017-010700-
NORTHWEST AND NORTH CENTRAL SOUTH DAKOTA

CITY           SKY/WX    TMP DP  RH WIND       PRES   REMARKS
BUFFALO          N/A     60  52  74 E9        29.86F
FAITH            N/A     64  55  72 SE10      29.92F
MOBRIDGE       CLOUDY    62  58  86 SE5       29.90S
$$

SDZ012>016-024>037-041>051-057-063-072>074-010700-
SOUTHWEST AND SOUTH CENTRAL SOUTH DAKOTA

CITY           SKY/WX    TMP DP  RH WIND       PRES   REMARKS
RAPID CTY ARPT PTCLDY    61  56  83 CALM      29.93F
PIERRE         MOCLDY    61  59  93 CALM      29.90S
CUSTER         PTCLDY    60  50  69 SW5       30.07S
ELLSWORTH AFB  PTCLDY    63  58  84 S8        29.92F
PHILIP         MOCLDY    61  60  97 E5        29.91F
PINE RIDGE     MOCLDY    66  52  60 NE3       29.94F
WINNER         FAIR      69  61  75 CALM      29.91F
$$

SDZ004>011-016>023-039-040-010700-
NORTHEAST SOUTH DAKOTA

CITY           SKY/WX    TMP DP  RH WIND       PRES   REMARKS
ABERDEEN       MOCLDY    60  57  89 CALM      29.91S
WATERTOWN      FAIR      68  64  87 N3        29.91S
BROOKINGS      FAIR      72  66  83 S6        29.94R
SISSETON         N/A     64  62  93 CALM      29.88F
$$

SDZ017-020-022-023-036>040-048>070-010700-
SOUTHEAST SOUTH DAKOTA

CITY           SKY/WX    TMP DP  RH WIND       PRES   REMARKS
SIOUX FALLS    FAIR      73  67  81 S8        29.91S
HURON          MOCLDY    65  63  93 N5        29.89F
CHAMBERLAIN    MOCLDY    67  64  90 CALM      29.91F
MITCHELL       MOCLDY    67  65  93 N3        29.89F
YANKTON        FAIR      70  66  88 E6        29.88F
$$

ABBREVIATIONS USED IN REMARKS
   TC - TEMPERATURE IN CELSIUS
  WCI - WIND CHILL INDEX
   HX - HEAT INDEX
  VSB - VISIBILITY



USA.gov is the U.S. government's official web portal to all federal, state and local government web resources and services.